Tracking 18945 objects as of 20-Jan-2018
HD Live streaming from Space Station
objects crossing your sky now

FENGYUN 1C DEB

Track FENGYUN 1C DEB now!
10-day predictions


NORAD ID: 38125
Int'l Code: 1999-025EPW
Perigee: 850.7 km
Apogee: 1,499.3 km
Inclination: 100.3 °
Period: 108.7 minutes
Semi major axis: 7545 km
RCS: 0.003 m2 (small)
Launch date: May 10, 1999
Source: People's Republic of China (PRC)
Launch site: Taiyaun Space Center, China (TSC)

Note: This is SATELLITE DEBRIS
aabbcc
Your satellite tracking list
Your tracking list is empty




NASA's NSSDC Master Catalog

Two Line Element Set (TLE):
1 38125U 99025EPW 18019.93035362 +.00000345 +00000-0 +55595-3 0  9998
2 38125 100.3442 068.8948 0429713 224.2002 132.4031 13.24428574436081
Source of the keplerian elements: AFSPC